Time,TemperatureF,DewpointF,PressureIn,WindDirection,WindDirectionDegrees,WindSpeedMPH,WindSpeedGustMPH,Humidity,HourlyPrecipIn,Conditions,Clouds,dailyrainin,SolarRadiationWatts/m^2,SoftwareType,DateUTC
2013-05-04 00:01:00,51.4,42.7,30.24,East,85,6.0,14.0,72,0.00,,,0.00,0,WeatherCatV1.10B1570,2013-05-04 04:01:00,
2013-05-04 00:06:00,51.2,42.5,30.24,East,90,8.0,8.0,72,0.00,,,0.00,0,WeatherCatV1.10B1570,2013-05-04 04:06:00,
2013-05-04 00:11:00,51.0,42.7,30.24,ENE,59,9.0,11.0,73,0.00,,,0.00,0,WeatherCatV1.10B1570,2013-05-04 04:11:00,
2013-05-04 00:16:00,50.8,42.5,30.24,ESE,116,6.0,10.0,73,0.00,,,0.00,0,WeatherCatV1.10B1570,2013-05-04 04:16:00,
2013-05-04 00:21:00,50.6,42.3,30.24,East,79,2.0,6.0,73,0.00,,,0.00,0,WeatherCatV1.10B1570,2013-05-04 04:21:00,
2013-05-04 00:26:00,50.5,42.2,30.24,ENE,63,5.0,9.0,73,0.00,,,0.00,0,WeatherCatV1.10B1570,2013-05-04 04:26:00,
2013-05-04 00:31:00,50.3,42.3,30.24,East,85,6.0,6.0,74,0.00,,,0.00,0,WeatherCatV1.10B1570,2013-05-04 04:31:00,
2013-05-04 00:36:00,50.1,42.1,30.24,East,85,5.0,9.0,74,0.00,,,0.00,0,WeatherCatV1.10B1570,2013-05-04 04:36:00,
2013-05-04 00:41:00,50.0,42.0,30.24,East,80,4.0,7.0,74,0.00,,,0.00,0,WeatherCatV1.10B1570,2013-05-04 04:41:00,
2013-05-04 00:46:00,50.0,42.4,30.24,East,90,5.0,8.0,75,0.00,,,0.00,0,WeatherCatV1.10B1570,2013-05-04 04:46:00,
2013-05-04 00:51:00,49.8,42.2,30.24,NE,34,8.0,9.0,75,0.00,,,0.00,0,WeatherCatV1.10B1570,2013-05-04 04:51:00,
2013-05-04 00:56:00,49.7,42.4,30.24,ESE,106,4.0,6.0,76,0.00,,,0.00,0,WeatherCatV1.10B1570,2013-05-04 04:56:00,
2013-05-04 01:01:00,49.6,42.3,30.24,East,95,5.0,8.0,76,0.00,,,0.00,0,WeatherCatV1.10B1570,2013-05-04 05:01:00,
2013-05-04 01:06:00,49.5,42.3,30.24,ESE,112,6.0,7.0,76,0.00,,,0.00,0,WeatherCatV1.10B1570,2013-05-04 05:06:00,
2013-05-04 01:11:00,49.4,42.2,30.23,East,80,4.0,6.0,76,0.00,,,0.00,0,WeatherCatV1.10B1570,2013-05-04 05:11:00,
2013-05-04 01:16:00,49.3,42.4,30.23,ESE,102,2.0,5.0,77,0.00,,,0.00,0,WeatherCatV1.10B1570,2013-05-04 05:16:00,
2013-05-04 01:21:00,49.2,42.3,30.23,ENE,72,1.0,5.0,77,0.00,,,0.00,0,WeatherCatV1.10B1570,2013-05-04 05:21:00,
2013-05-04 01:26:00,49.1,42.2,30.23,ENE,73,2.0,6.0,77,0.00,,,0.00,0,WeatherCatV1.10B1570,2013-05-04 05:26:00,
2013-05-04 01:31:00,49.0,42.4,30.23,ESE,116,3.0,3.0,78,0.00,,,0.00,0,WeatherCatV1.10B1570,2013-05-04 05:31:00,
2013-05-04 01:36:00,48.9,42.3,30.23,NE,46,1.0,3.0,78,0.00,,,0.00,0,WeatherCatV1.10B1570,2013-05-04 05:36:00,
2013-05-04 01:41:00,48.8,42.6,30.22,ESE,104,3.0,7.0,79,0.00,,,0.00,0,WeatherCatV1.10B1570,2013-05-04 05:41:00,
2013-05-04 01:46:00,48.7,42.5,30.22,NNE,14,3.0,4.0,79,0.00,,,0.00,0,WeatherCatV1.10B1570,2013-05-04 05:46:00,
2013-05-04 01:51:00,48.7,42.8,30.22,NE,41,1.0,3.0,80,0.00,,,0.00,0,WeatherCatV1.10B1570,2013-05-04 05:51:00,
2013-05-04 01:56:00,48.5,42.6,30.22,East,79,5.0,5.0,80,0.00,,,0.00,0,WeatherCatV1.10B1570,2013-05-04 05:56:00,
2013-05-04 02:01:00,48.5,42.6,30.22,East,85,3.0,3.0,80,0.00,,,0.00,0,WeatherCatV1.10B1570,2013-05-04 06:01:00,
2013-05-04 02:06:00,48.4,42.8,30.22,East,99,3.0,5.0,81,0.00,,,0.00,0,WeatherCatV1.10B1570,2013-05-04 06:06:00,
2013-05-04 02:11:00,48.4,42.8,30.22,NNE,25,2.0,8.0,81,0.00,,,0.00,0,WeatherCatV1.10B1570,2013-05-04 06:11:00,
2013-05-04 02:16:00,48.4,42.8,30.21,East,90,5.0,7.0,81,0.00,,,0.00,0,WeatherCatV1.10B1570,2013-05-04 06:16:00,
2013-05-04 02:21:00,48.4,43.2,30.21,ESE,107,4.0,7.0,82,0.00,,,0.00,0,WeatherCatV1.10B1570,2013-05-04 06:21:00,
2013-05-04 02:26:00,48.5,43.3,30.21,East,100,5.0,9.0,82,0.00,,,0.00,0,WeatherCatV1.10B1570,2013-05-04 06:26:00,
2013-05-04 02:31:00,48.6,43.4,30.20,SE,131,2.0,4.0,82,0.00,,,0.00,0,WeatherCatV1.10B1570,2013-05-04 06:31:00,
2013-05-04 02:36:00,48.6,43.4,30.20,ESE,109,2.0,4.0,82,0.00,,,0.00,0,WeatherCatV1.10B1570,2013-05-04 06:36:00,
2013-05-04 02:41:00,48.6,43.4,30.20,East,99,3.0,6.0,82,0.00,,,0.00,0,WeatherCatV1.10B1570,2013-05-04 06:41:00,
2013-05-04 02:46:00,48.6,43.4,30.20,ENE,65,2.0,9.0,82,0.00,,,0.00,0,WeatherCatV1.10B1570,2013-05-04 06:46:00,
2013-05-04 02:51:00,48.6,43.7,30.20,East,99,3.0,6.0,83,0.00,,,0.00,0,WeatherCatV1.10B1570,2013-05-04 06:51:00,
2013-05-04 02:56:00,48.6,43.7,30.20,East,90,3.0,7.0,83,0.00,,,0.00,0,WeatherCatV1.10B1570,2013-05-04 06:56:00,
2013-05-04 03:01:00,48.6,43.7,30.20,SE,128,3.0,8.0,83,0.00,,,0.00,0,WeatherCatV1.10B1570,2013-05-04 07:01:00,
2013-05-04 03:06:00,48.6,43.7,30.20,East,85,4.0,5.0,83,0.00,,,0.00,0,WeatherCatV1.10B1570,2013-05-04 07:06:00,
2013-05-04 03:11:00,48.7,43.8,30.20,ENE,78,3.0,5.0,83,0.00,,,0.00,0,WeatherCatV1.10B1570,2013-05-04 07:11:00,
2013-05-04 03:16:00,48.6,43.7,30.20,East,95,2.0,5.0,83,0.00,,,0.00,0,WeatherCatV1.10B1570,2013-05-04 07:16:00,
2013-05-04 03:21:00,48.6,43.7,30.20,ESE,113,4.0,12.0,83,0.00,,,0.00,0,WeatherCatV1.10B1570,2013-05-04 07:21:00,
2013-05-04 03:26:00,48.6,43.7,30.20,NE,43,5.0,7.0,83,0.00,,,0.00,0,WeatherCatV1.10B1570,2013-05-04 07:26:00,
2013-05-04 03:31:00,48.6,43.7,30.20,ENE,59,8.0,8.0,83,0.00,,,0.00,0,WeatherCatV1.10B1570,2013-05-04 07:31:00,
2013-05-04 03:36:00,48.6,44.0,30.20,East,95,2.0,5.0,84,0.00,,,0.00,0,WeatherCatV1.10B1570,2013-05-04 07:36:00,
2013-05-04 03:41:00,48.6,44.0,30.20,SE,134,4.0,9.0,84,0.00,,,0.00,0,WeatherCatV1.10B1570,2013-05-04 07:41:00,
2013-05-04 03:46:00,48.6,44.0,30.20,East,85,5.0,8.0,84,0.00,,,0.00,0,WeatherCatV1.10B1570,2013-05-04 07:46:00,
2013-05-04 03:51:00,48.5,43.9,30.20,ESE,102,1.0,4.0,84,0.00,,,0.00,0,WeatherCatV1.10B1570,2013-05-04 07:51:00,
2013-05-04 03:56:00,48.4,43.8,30.20,ENE,78,3.0,8.0,84,0.00,,,0.00,0,WeatherCatV1.10B1570,2013-05-04 07:56:00,
2013-05-04 04:01:00,48.3,44.0,30.20,East,90,3.0,6.0,85,0.00,,,0.00,0,WeatherCatV1.10B1570,2013-05-04 08:01:00,
2013-05-04 04:06:00,48.2,43.9,30.20,East,85,3.0,8.0,85,0.00,,,0.00,0,WeatherCatV1.10B1570,2013-05-04 08:06:00,
2013-05-04 04:11:00,48.1,43.8,30.20,ENE,59,4.0,7.0,85,0.00,,,0.00,0,WeatherCatV1.10B1570,2013-05-04 08:11:00,
2013-05-04 04:16:00,48.1,43.8,30.20,East,85,4.0,9.0,85,0.00,,,0.00,0,WeatherCatV1.10B1570,2013-05-04 08:16:00,
2013-05-04 04:21:00,48.1,43.8,30.20,East,95,3.0,7.0,85,0.00,,,0.00,0,WeatherCatV1.10B1570,2013-05-04 08:21:00,
2013-05-04 04:26:00,48.0,43.7,30.20,SE,132,2.0,7.0,85,0.00,,,0.00,0,WeatherCatV1.10B1570,2013-05-04 08:26:00,
2013-05-04 04:31:00,48.0,44.0,30.20,ESE,116,3.0,5.0,86,0.00,,,0.00,0,WeatherCatV1.10B1570,2013-05-04 08:31:00,
2013-05-04 04:36:00,48.0,44.0,30.21,SE,144,3.0,7.0,86,0.00,,,0.00,0,WeatherCatV1.10B1570,2013-05-04 08:36:00,
2013-05-04 04:41:00,47.9,43.9,30.21,ENE,75,5.0,7.0,86,0.00,,,0.00,0,WeatherCatV1.10B1570,2013-05-04 08:41:00,
2013-05-04 04:46:00,47.9,43.9,30.21,East,95,8.0,8.0,86,0.00,,,0.00,0,WeatherCatV1.10B1570,2013-05-04 08:46:00,
2013-05-04 04:51:00,47.9,43.9,30.21,North,353,5.0,7.0,86,0.00,,,0.00,0,WeatherCatV1.10B1570,2013-05-04 08:51:00,
2013-05-04 04:56:00,47.9,43.9,30.21,NNW,332,4.0,8.0,86,0.00,,,0.00,0,WeatherCatV1.10B1570,2013-05-04 08:56:00,
2013-05-04 05:01:00,47.8,43.8,30.21,NNE,22,2.0,4.0,86,0.00,,,0.00,0,WeatherCatV1.10B1570,2013-05-04 09:01:00,
2013-05-04 05:06:00,47.8,43.8,30.21,East,90,3.0,5.0,86,0.00,,,0.00,0,WeatherCatV1.10B1570,2013-05-04 09:06:00,
2013-05-04 05:11:00,47.7,43.7,30.21,NNE,21,1.0,6.0,86,0.00,,,0.00,0,WeatherCatV1.10B1570,2013-05-04 09:11:00,
2013-05-04 05:16:00,47.6,43.9,30.21,East,85,2.0,6.0,87,0.00,,,0.00,0,WeatherCatV1.10B1570,2013-05-04 09:16:00,
2013-05-04 05:21:00,47.6,43.9,30.21,SE,124,2.0,6.0,87,0.00,,,0.00,0,WeatherCatV1.10B1570,2013-05-04 09:21:00,
2013-05-04 05:26:00,47.6,43.9,30.21,East,80,2.0,7.0,87,0.00,,,0.00,0,WeatherCatV1.10B1570,2013-05-04 09:26:00,
2013-05-04 05:31:00,47.5,43.8,30.21,ESE,110,1.0,4.0,87,0.00,,,0.00,0,WeatherCatV1.10B1570,2013-05-04 09:31:00,
2013-05-04 05:36:00,47.6,44.2,30.20,North,355,4.0,5.0,88,0.00,,,0.00,0,WeatherCatV1.10B1570,2013-05-04 09:36:00,
2013-05-04 05:41:00,47.5,44.1,30.21,ESE,103,5.0,9.0,88,0.00,,,0.00,0,WeatherCatV1.10B1570,2013-05-04 09:41:00,
2013-05-04 05:46:00,47.5,44.1,30.20,NE,51,3.0,7.0,88,0.00,,,0.00,0,WeatherCatV1.10B1570,2013-05-04 09:46:00,
2013-05-04 05:51:00,47.4,44.0,30.20,WNW,299,2.0,6.0,88,0.00,,,0.00,0,WeatherCatV1.10B1570,2013-05-04 09:51:00,
2013-05-04 05:56:00,47.4,44.0,30.20,NE,35,7.0,7.0,88,0.00,,,0.00,0,WeatherCatV1.10B1570,2013-05-04 09:56:00,
2013-05-04 06:01:00,47.2,43.8,30.20,East,85,3.0,5.0,88,0.00,,,0.00,0,WeatherCatV1.10B1570,2013-05-04 10:01:00,
2013-05-04 06:06:00,47.1,43.4,30.20,NNE,22,2.0,7.0,87,0.00,,,0.00,0,WeatherCatV1.10B1570,2013-05-04 10:06:00,
2013-05-04 06:11:00,47.1,43.7,30.20,East,80,0.0,4.0,88,0.00,,,0.00,0,WeatherCatV1.10B1570,2013-05-04 10:11:00,
2013-05-04 06:16:00,47.1,43.7,30.21,ENE,59,0.0,5.0,88,0.00,,,0.00,0,WeatherCatV1.10B1570,2013-05-04 10:16:00,
2013-05-04 06:21:00,47.1,43.4,30.21,East,99,5.0,7.0,87,0.00,,,0.00,0,WeatherCatV1.10B1570,2013-05-04 10:21:00,
2013-05-04 06:26:00,47.1,43.4,30.21,ESE,105,3.0,7.0,87,0.00,,,0.00,0,WeatherCatV1.10B1570,2013-05-04 10:26:00,
2013-05-04 06:31:00,47.0,43.3,30.21,ENE,76,1.0,6.0,87,0.00,,,0.00,0,WeatherCatV1.10B1570,2013-05-04 10:31:00,
2013-05-04 06:36:00,47.0,43.3,30.21,ENE,78,2.0,4.0,87,0.00,,,0.00,0,WeatherCatV1.10B1570,2013-05-04 10:36:00,
2013-05-04 06:41:00,46.9,43.2,30.21,ESE,110,2.0,7.0,87,0.00,,,0.00,0,WeatherCatV1.10B1570,2013-05-04 10:41:00,
2013-05-04 06:46:00,46.9,43.2,30.22,ENE,73,6.0,8.0,87,0.00,,,0.00,5,WeatherCatV1.10B1570,2013-05-04 10:46:00,
2013-05-04 06:51:00,46.8,43.1,30.22,NE,49,10.0,10.0,87,0.00,,,0.00,9,WeatherCatV1.10B1570,2013-05-04 10:51:00,
2013-05-04 06:56:00,46.7,43.0,30.22,East,85,5.0,10.0,87,0.00,,,0.00,9,WeatherCatV1.10B1570,2013-05-04 10:56:00,
2013-05-04 07:01:00,46.7,43.0,30.22,NE,43,2.0,5.0,87,0.00,,,0.00,12,WeatherCatV1.10B1570,2013-05-04 11:01:00,
2013-05-04 07:06:00,46.7,43.0,30.22,NE,43,3.0,10.0,87,0.00,,,0.00,16,WeatherCatV1.10B1570,2013-05-04 11:06:00,
2013-05-04 07:11:00,46.7,43.3,30.22,ENE,74,3.0,8.0,88,0.00,,,0.00,16,WeatherCatV1.10B1570,2013-05-04 11:11:00,
2013-05-04 07:16:00,46.7,43.0,30.22,NE,49,4.0,7.0,87,0.00,,,0.00,19,WeatherCatV1.10B1570,2013-05-04 11:16:00,
2013-05-04 07:21:00,46.7,43.3,30.22,ESE,122,3.0,3.0,88,0.00,,,0.00,19,WeatherCatV1.10B1570,2013-05-04 11:21:00,
2013-05-04 07:26:00,46.7,43.3,30.22,NE,34,2.0,8.0,88,0.00,,,0.00,23,WeatherCatV1.10B1570,2013-05-04 11:26:00,
2013-05-04 07:31:00,46.7,43.3,30.22,NNE,12,6.0,6.0,88,0.00,,,0.00,25,WeatherCatV1.10B1570,2013-05-04 11:31:00,
2013-05-04 07:36:00,46.8,43.4,30.23,ENE,68,4.0,8.0,88,0.00,,,0.00,30,WeatherCatV1.10B1570,2013-05-04 11:36:00,
2013-05-04 07:41:00,46.7,43.3,30.23,East,85,5.0,6.0,88,0.00,,,0.00,32,WeatherCatV1.10B1570,2013-05-04 11:41:00,
2013-05-04 07:46:00,46.8,43.4,30.23,NNW,344,1.0,6.0,88,0.00,,,0.00,39,WeatherCatV1.10B1570,2013-05-04 11:46:00,
2013-05-04 07:51:00,46.8,43.4,30.23,East,79,4.0,6.0,88,0.00,,,0.00,42,WeatherCatV1.10B1570,2013-05-04 11:51:00,
2013-05-04 07:56:00,46.8,43.4,30.23,NNW,329,3.0,6.0,88,0.00,,,0.00,49,WeatherCatV1.10B1570,2013-05-04 11:56:00,
2013-05-04 08:01:00,46.9,43.5,30.23,ESE,118,4.0,6.0,88,0.00,,,0.00,49,WeatherCatV1.10B1570,2013-05-04 12:01:00,
2013-05-04 08:06:00,46.9,43.5,30.23,NNE,26,3.0,6.0,88,0.00,,,0.00,51,WeatherCatV1.10B1570,2013-05-04 12:06:00,
2013-05-04 08:11:00,46.9,43.5,30.23,ENE,71,4.0,10.0,88,0.00,,,0.00,62,WeatherCatV1.10B1570,2013-05-04 12:11:00,
2013-05-04 08:16:00,46.9,43.8,30.23,NE,53,5.0,5.0,89,0.00,,,0.00,67,WeatherCatV1.10B1570,2013-05-04 12:16:00,
2013-05-04 08:21:00,46.9,43.8,30.23,East,95,4.0,4.0,89,0.00,,,0.00,77,WeatherCatV1.10B1570,2013-05-04 12:21:00,
2013-05-04 08:26:00,46.9,43.8,30.23,ENE,72,4.0,8.0,89,0.00,,,0.00,79,WeatherCatV1.10B1570,2013-05-04 12:26:00,
2013-05-04 08:31:00,47.0,43.9,30.23,SE,126,5.0,6.0,89,0.00,,,0.00,74,WeatherCatV1.10B1570,2013-05-04 12:31:00,
2013-05-04 08:35:00,47.0,43.9,30.23,NNE,27,1.0,4.0,89,0.00,,,0.00,70,WeatherCatV1.10B1570,2013-05-04 12:35:00,
2013-05-04 08:40:00,47.1,44.0,30.23,North,11,4.0,10.0,89,0.00,,,0.00,74,WeatherCatV1.10B1570,2013-05-04 12:40:00,
2013-05-04 08:45:00,47.1,44.0,30.23,ESE,105,4.0,6.0,89,0.00,,,0.00,86,WeatherCatV1.10B1570,2013-05-04 12:45:00,
2013-05-04 08:50:00,47.2,44.1,30.23,NE,48,4.0,6.0,89,0.00,,,0.00,93,WeatherCatV1.10B1570,2013-05-04 12:50:00,
2013-05-04 08:55:00,47.2,44.1,30.24,East,80,2.0,4.0,89,0.00,,,0.00,104,WeatherCatV1.10B1570,2013-05-04 12:55:00,
2013-05-04 09:00:00,47.3,44.2,30.23,NNE,26,1.0,6.0,89,0.00,,,0.00,105,WeatherCatV1.10B1570,2013-05-04 13:00:00,
2013-05-04 09:05:00,47.4,44.0,30.23,SE,126,4.0,11.0,88,0.00,,,0.00,109,WeatherCatV1.10B1570,2013-05-04 13:05:00,
2013-05-04 09:10:00,47.4,44.0,30.23,East,81,3.0,7.0,88,0.00,,,0.00,125,WeatherCatV1.10B1570,2013-05-04 13:10:00,
2013-05-04 09:15:00,47.5,44.1,30.23,East,90,3.0,11.0,88,0.00,,,0.00,199,WeatherCatV1.10B1570,2013-05-04 13:15:00,
2013-05-04 09:20:00,47.7,44.9,30.22,NNW,342,4.0,6.0,90,0.00,,,0.00,216,WeatherCatV1.10B1570,2013-05-04 13:20:00,
2013-05-04 09:25:00,47.8,45.0,30.22,ENE,59,3.0,6.0,90,0.00,,,0.00,162,WeatherCatV1.10B1570,2013-05-04 13:25:00,
2013-05-04 09:30:00,48.1,45.3,30.23,East,90,5.0,7.0,90,0.00,,,0.00,181,WeatherCatV1.10B1570,2013-05-04 13:30:00,
2013-05-04 09:35:00,48.2,45.1,30.22,East,90,6.0,6.0,89,0.00,,,0.00,199,WeatherCatV1.10B1570,2013-05-04 13:35:00,
2013-05-04 09:40:00,48.3,44.9,30.22,ESE,108,4.0,14.0,88,0.00,,,0.00,195,WeatherCatV1.10B1570,2013-05-04 13:40:00,
2013-05-04 09:45:00,48.4,45.0,30.22,NE,45,4.0,10.0,88,0.00,,,0.00,192,WeatherCatV1.10B1570,2013-05-04 13:45:00,
2013-05-04 09:50:00,48.5,44.8,30.22,ENE,66,6.0,8.0,87,0.00,,,0.00,167,WeatherCatV1.10B1570,2013-05-04 13:50:00,
2013-05-04 09:55:00,48.6,44.9,30.22,NNE,20,3.0,5.0,87,0.00,,,0.00,236,WeatherCatV1.10B1570,2013-05-04 13:55:00,
2013-05-04 10:00:00,48.8,45.1,30.22,NNE,32,1.0,9.0,87,0.00,,,0.00,214,WeatherCatV1.10B1570,2013-05-04 14:00:00,
2013-05-04 10:05:00,49.3,45.3,30.22,ENE,77,6.0,8.0,86,0.00,,,0.00,274,WeatherCatV1.10B1570,2013-05-04 14:05:00,
2013-05-04 10:10:00,49.5,45.2,30.21,SE,125,2.0,7.0,85,0.00,,,0.00,278,WeatherCatV1.10B1570,2013-05-04 14:10:00,
2013-05-04 10:15:00,49.7,45.4,30.22,East,95,6.0,6.0,85,0.00,,,0.00,253,WeatherCatV1.10B1570,2013-05-04 14:15:00,
2013-05-04 10:20:00,50.1,45.5,30.21,NNE,28,3.0,8.0,84,0.00,,,0.00,334,WeatherCatV1.10B1570,2013-05-04 14:20:00,
2013-05-04 10:25:00,50.1,45.1,30.22,NE,54,1.0,5.0,83,0.00,,,0.00,206,WeatherCatV1.10B1570,2013-05-04 14:25:00,
2013-05-04 10:30:00,50.2,45.2,30.22,ENE,63,5.0,7.0,83,0.00,,,0.00,195,WeatherCatV1.10B1570,2013-05-04 14:30:00,
2013-05-04 10:35:00,50.3,45.3,30.22,East,95,6.0,6.0,83,0.00,,,0.00,207,WeatherCatV1.10B1570,2013-05-04 14:35:00,
2013-05-04 10:40:00,50.3,45.3,30.22,ENE,73,1.0,3.0,83,0.00,,,0.00,202,WeatherCatV1.10B1570,2013-05-04 14:40:00,
2013-05-04 10:45:00,50.4,45.4,30.22,ENE,78,3.0,11.0,83,0.00,,,0.00,251,WeatherCatV1.10B1570,2013-05-04 14:45:00,
2013-05-04 10:50:00,50.4,45.1,30.21,ENE,74,4.0,9.0,82,0.00,,,0.00,195,WeatherCatV1.10B1570,2013-05-04 14:50:00,
2013-05-04 10:55:00,50.6,45.6,30.21,ENE,59,4.0,8.0,83,0.00,,,0.00,341,WeatherCatV1.10B1570,2013-05-04 14:55:00,
2013-05-04 11:00:00,50.8,45.2,30.21,SE,130,5.0,9.0,81,0.00,,,0.00,339,WeatherCatV1.10B1570,2013-05-04 15:00:00,
2013-05-04 11:05:00,50.9,45.0,30.21,East,95,4.0,10.0,80,0.00,,,0.00,420,WeatherCatV1.10B1570,2013-05-04 15:05:00,
2013-05-04 11:10:00,51.3,45.3,30.21,East,85,2.0,5.0,80,0.00,,,0.00,367,WeatherCatV1.10B1570,2013-05-04 15:10:00,
2013-05-04 11:15:00,51.8,45.8,30.21,NE,42,1.0,10.0,80,0.00,,,0.00,295,WeatherCatV1.10B1570,2013-05-04 15:15:00,
2013-05-04 11:20:00,52.0,46.0,30.21,East,85,6.0,8.0,80,0.00,,,0.00,373,WeatherCatV1.10B1570,2013-05-04 15:20:00,
2013-05-04 11:25:00,52.2,46.2,30.21,ENE,59,2.0,6.0,80,0.00,,,0.00,466,WeatherCatV1.10B1570,2013-05-04 15:25:00,
2013-05-04 11:30:00,52.7,46.7,30.21,ENE,66,2.0,4.0,80,0.00,,,0.00,466,WeatherCatV1.10B1570,2013-05-04 15:30:00,
2013-05-04 11:35:00,53.0,46.0,30.21,North,9,4.0,6.0,77,0.00,,,0.00,380,WeatherCatV1.10B1570,2013-05-04 15:35:00,
2013-05-04 11:40:00,53.2,46.5,30.20,ESE,107,4.0,4.0,78,0.00,,,0.00,554,WeatherCatV1.10B1570,2013-05-04 15:40:00,
2013-05-04 11:45:00,53.9,46.5,30.20,NE,51,1.0,4.0,76,0.00,,,0.00,487,WeatherCatV1.10B1570,2013-05-04 15:45:00,
2013-05-04 11:50:00,54.1,46.4,30.20,NW,326,3.0,9.0,75,0.00,,,0.00,499,WeatherCatV1.10B1570,2013-05-04 15:50:00,
2013-05-04 11:55:00,54.2,46.4,30.20,East,101,4.0,6.0,75,0.00,,,0.00,694,WeatherCatV1.10B1570,2013-05-04 15:55:00,
2013-05-04 12:00:00,54.9,46.8,30.20,ENE,63,12.0,13.0,74,0.00,,,0.00,719,WeatherCatV1.10B1570,2013-05-04 16:00:00,
2013-05-04 12:05:00,55.0,46.1,30.20,ENE,72,6.0,13.0,72,0.00,,,0.00,673,WeatherCatV1.10B1570,2013-05-04 16:05:00,
2013-05-04 12:10:00,55.1,46.2,30.20,North,359,2.0,10.0,72,0.00,,,0.00,728,WeatherCatV1.10B1570,2013-05-04 16:10:00,
2013-05-04 12:15:00,55.4,45.8,30.20,East,95,3.0,7.0,70,0.00,,,0.00,640,WeatherCatV1.10B1570,2013-05-04 16:15:00,
2013-05-04 12:21:00,55.5,46.2,30.19,ESE,104,8.0,10.0,71,0.00,,,0.00,503,WeatherCatV1.10B1570,2013-05-04 16:21:00,
2013-05-04 12:26:00,55.4,46.2,30.19,North,351,7.0,9.0,71,0.00,,,0.00,355,WeatherCatV1.10B1570,2013-05-04 16:26:00,
2013-05-04 12:31:00,55.2,46.0,30.19,NNE,21,5.0,12.0,71,0.00,,,0.00,635,WeatherCatV1.10B1570,2013-05-04 16:31:00,
2013-05-04 12:36:00,55.3,46.4,30.19,East,85,5.0,8.0,72,0.00,,,0.00,837,WeatherCatV1.10B1570,2013-05-04 16:36:00,
2013-05-04 12:41:00,56.1,47.6,30.19,SSE,159,8.0,10.0,73,0.00,,,0.00,635,WeatherCatV1.10B1570,2013-05-04 16:41:00,
2013-05-04 12:46:00,56.6,46.5,30.18,ENE,72,6.0,12.0,69,0.00,,,0.00,972,WeatherCatV1.10B1570,2013-05-04 16:46:00,
2013-05-04 12:51:00,57.2,47.5,30.18,ESE,102,4.0,12.0,70,0.00,,,0.00,635,WeatherCatV1.10B1570,2013-05-04 16:51:00,
2013-05-04 12:56:00,57.4,46.9,30.18,North,351,2.0,9.0,68,0.00,,,0.00,752,WeatherCatV1.10B1570,2013-05-04 16:56:00,
2013-05-04 13:01:00,58.2,47.7,30.18,East,85,4.0,8.0,68,0.00,,,0.00,944,WeatherCatV1.10B1570,2013-05-04 17:01:00,
2013-05-04 13:06:00,59.0,46.8,30.18,ESE,103,5.0,8.0,64,0.00,,,0.00,636,WeatherCatV1.10B1570,2013-05-04 17:06:00,
2013-05-04 13:11:00,58.4,46.3,30.18,East,95,8.0,14.0,64,0.00,,,0.00,731,WeatherCatV1.10B1570,2013-05-04 17:11:00,
2013-05-04 13:16:00,57.7,46.0,30.18,ENE,66,5.0,8.0,65,0.00,,,0.00,1007,WeatherCatV1.10B1570,2013-05-04 17:16:00,
2013-05-04 13:21:00,57.5,46.2,30.17,ENE,70,9.0,11.0,66,0.00,,,0.00,954,WeatherCatV1.10B1570,2013-05-04 17:21:00,
2013-05-04 13:26:00,57.2,45.5,30.18,ENE,66,9.0,11.0,65,0.00,,,0.00,854,WeatherCatV1.10B1570,2013-05-04 17:26:00,
2013-05-04 13:31:00,57.6,45.9,30.17,ENE,57,9.0,15.0,65,0.00,,,0.00,1137,WeatherCatV1.10B1570,2013-05-04 17:31:00,
2013-05-04 13:36:00,57.9,46.6,30.17,ESE,105,3.0,7.0,66,0.00,,,0.00,631,WeatherCatV1.10B1570,2013-05-04 17:36:00,
2013-05-04 13:41:00,57.9,45.8,30.17,ENE,72,5.0,15.0,64,0.00,,,0.00,819,WeatherCatV1.10B1570,2013-05-04 17:41:00,
2013-05-04 13:46:00,58.3,46.2,30.17,East,95,6.0,8.0,64,0.00,,,0.00,689,WeatherCatV1.10B1570,2013-05-04 17:46:00,
2013-05-04 13:51:00,58.5,45.5,30.17,East,85,10.0,14.0,62,0.00,,,0.00,824,WeatherCatV1.10B1570,2013-05-04 17:51:00,
2013-05-04 13:56:00,58.1,46.0,30.17,NE,39,3.0,13.0,64,0.00,,,0.00,970,WeatherCatV1.10B1570,2013-05-04 17:56:00,
2013-05-04 14:01:00,58.4,47.5,30.17,NNE,22,5.0,9.0,67,0.00,,,0.00,875,WeatherCatV1.10B1570,2013-05-04 18:01:00,
2013-05-04 14:06:00,59.1,46.9,30.17,ENE,66,9.0,9.0,64,0.00,,,0.00,777,WeatherCatV1.10B1570,2013-05-04 18:06:00,
2013-05-04 14:11:00,59.6,47.0,30.16,North,352,7.0,12.0,63,0.00,,,0.00,705,WeatherCatV1.10B1570,2013-05-04 18:11:00,
2013-05-04 14:16:00,59.4,47.6,30.16,North,10,12.0,14.0,65,0.00,,,0.00,512,WeatherCatV1.10B1570,2013-05-04 18:16:00,
2013-05-04 14:21:00,58.9,46.7,30.16,NE,44,8.0,12.0,64,0.00,,,0.00,615,WeatherCatV1.10B1570,2013-05-04 18:21:00,
2013-05-04 14:26:00,58.6,46.9,30.16,ENE,74,5.0,10.0,65,0.00,,,0.00,800,WeatherCatV1.10B1570,2013-05-04 18:26:00,
2013-05-04 14:31:00,58.8,47.5,30.15,NW,325,4.0,10.0,66,0.00,,,0.00,895,WeatherCatV1.10B1570,2013-05-04 18:31:00,
2013-05-04 14:36:00,58.8,47.5,30.15,NNW,345,4.0,11.0,66,0.00,,,0.00,805,WeatherCatV1.10B1570,2013-05-04 18:36:00,
2013-05-04 14:41:00,59.5,48.9,30.15,North,355,4.0,8.0,68,0.00,,,0.00,846,WeatherCatV1.10B1570,2013-05-04 18:41:00,
2013-05-04 14:46:00,60.1,48.7,30.14,North,357,10.0,11.0,66,0.00,,,0.00,399,WeatherCatV1.10B1570,2013-05-04 18:46:00,
2013-05-04 14:51:00,59.4,48.0,30.15,NE,49,5.0,10.0,66,0.00,,,0.00,380,WeatherCatV1.10B1570,2013-05-04 18:51:00,
2013-05-04 14:56:00,58.8,47.9,30.14,NW,311,2.0,4.0,67,0.00,,,0.00,492,WeatherCatV1.10B1570,2013-05-04 18:56:00,
2013-05-04 15:01:00,58.7,47.8,30.14,NE,34,1.0,11.0,67,0.00,,,0.00,777,WeatherCatV1.10B1570,2013-05-04 19:01:00,
2013-05-04 15:06:00,58.7,48.6,30.15,East,81,6.0,9.0,69,0.00,,,0.00,327,WeatherCatV1.10B1570,2013-05-04 19:06:00,
2013-05-04 15:11:00,58.4,47.9,30.15,SSE,155,2.0,8.0,68,0.00,,,0.00,401,WeatherCatV1.10B1570,2013-05-04 19:11:00,
2013-05-04 15:16:00,58.3,47.8,30.15,NE,53,7.0,9.0,68,0.00,,,0.00,926,WeatherCatV1.10B1570,2013-05-04 19:16:00,
2013-05-04 15:21:00,58.9,48.4,30.15,ESE,105,6.0,14.0,68,0.00,,,0.00,422,WeatherCatV1.10B1570,2013-05-04 19:21:00,
2013-05-04 15:26:00,58.4,47.9,30.14,ENE,66,10.0,15.0,68,0.00,,,0.00,403,WeatherCatV1.10B1570,2013-05-04 19:26:00,
2013-05-04 15:31:00,58.4,48.3,30.14,ESE,104,4.0,12.0,69,0.00,,,0.00,847,WeatherCatV1.10B1570,2013-05-04 19:31:00,
2013-05-04 15:36:00,58.4,47.9,30.14,SE,139,10.0,13.0,68,0.00,,,0.00,849,WeatherCatV1.10B1570,2013-05-04 19:36:00,
2013-05-04 15:41:00,58.4,47.9,30.14,East,79,8.0,13.0,68,0.00,,,0.00,564,WeatherCatV1.10B1570,2013-05-04 19:41:00,
2013-05-04 15:46:00,58.2,47.7,30.14,ENE,71,6.0,14.0,68,0.00,,,0.00,448,WeatherCatV1.10B1570,2013-05-04 19:46:00,
2013-05-04 15:51:00,58.1,48.4,30.14,NE,46,6.0,6.0,70,0.00,,,0.00,404,WeatherCatV1.10B1570,2013-05-04 19:51:00,
2013-05-04 15:56:00,58.4,48.3,30.14,East,95,5.0,9.0,69,0.00,,,0.00,1028,WeatherCatV1.10B1570,2013-05-04 19:56:00,
2013-05-04 16:01:00,58.8,48.3,30.14,NNW,336,3.0,9.0,68,0.00,,,0.00,404,WeatherCatV1.10B1570,2013-05-04 20:01:00,
2013-05-04 16:06:00,58.9,48.4,30.14,NNE,29,3.0,7.0,68,0.00,,,0.00,756,WeatherCatV1.10B1570,2013-05-04 20:06:00,
2013-05-04 16:11:00,59.0,48.5,30.14,NNW,336,3.0,7.0,68,0.00,,,0.00,271,WeatherCatV1.10B1570,2013-05-04 20:11:00,
2013-05-04 16:16:00,58.7,48.2,30.14,East,90,5.0,6.0,68,0.00,,,0.00,341,WeatherCatV1.10B1570,2013-05-04 20:16:00,
2013-05-04 16:21:00,58.8,48.3,30.14,ENE,73,10.0,14.0,68,0.00,,,0.00,1063,WeatherCatV1.10B1570,2013-05-04 20:21:00,
2013-05-04 16:26:00,58.8,48.3,30.13,East,90,6.0,13.0,68,0.00,,,0.00,448,WeatherCatV1.10B1570,2013-05-04 20:26:00,
2013-05-04 16:31:00,58.9,48.0,30.13,NE,47,11.0,12.0,67,0.00,,,0.00,376,WeatherCatV1.10B1570,2013-05-04 20:31:00,
2013-05-04 16:36:00,59.0,48.8,30.13,East,85,4.0,8.0,69,0.00,,,0.00,311,WeatherCatV1.10B1570,2013-05-04 20:36:00,
2013-05-04 16:41:00,59.0,48.8,30.13,ESE,119,6.0,9.0,69,0.00,,,0.00,206,WeatherCatV1.10B1570,2013-05-04 20:41:00,
2013-05-04 16:46:00,58.6,48.5,30.13,ENE,68,7.0,9.0,69,0.00,,,0.00,183,WeatherCatV1.10B1570,2013-05-04 20:46:00,
2013-05-04 16:51:00,58.4,48.7,30.13,ENE,74,10.0,10.0,70,0.00,,,0.00,338,WeatherCatV1.10B1570,2013-05-04 20:51:00,
2013-05-04 16:56:00,58.5,48.7,30.12,NE,53,4.0,7.0,70,0.00,,,0.00,218,WeatherCatV1.10B1570,2013-05-04 20:56:00,
2013-05-04 17:01:00,58.8,49.4,30.12,North,355,4.0,7.0,71,0.00,,,0.00,332,WeatherCatV1.10B1570,2013-05-04 21:01:00,
2013-05-04 17:06:00,58.6,49.2,30.12,East,95,8.0,10.0,71,0.00,,,0.00,246,WeatherCatV1.10B1570,2013-05-04 21:06:00,
2013-05-04 17:11:00,58.2,49.2,30.12,ENE,57,6.0,10.0,72,0.00,,,0.00,466,WeatherCatV1.10B1570,2013-05-04 21:11:00,
2013-05-04 17:16:00,58.2,49.2,30.12,ENE,66,11.0,13.0,72,0.00,,,0.00,446,WeatherCatV1.10B1570,2013-05-04 21:16:00,
2013-05-04 17:21:00,58.4,49.8,30.12,North,359,3.0,7.0,73,0.00,,,0.00,380,WeatherCatV1.10B1570,2013-05-04 21:21:00,
2013-05-04 17:26:00,58.9,49.9,30.12,SE,128,3.0,7.0,72,0.00,,,0.00,352,WeatherCatV1.10B1570,2013-05-04 21:26:00,
2013-05-04 17:31:00,59.2,49.8,30.12,NE,55,2.0,10.0,71,0.00,,,0.00,309,WeatherCatV1.10B1570,2013-05-04 21:31:00,
2013-05-04 17:36:00,59.1,49.3,30.12,North,7,6.0,11.0,70,0.00,,,0.00,603,WeatherCatV1.10B1570,2013-05-04 21:36:00,
2013-05-04 17:41:00,59.1,49.7,30.12,SE,139,6.0,12.0,71,0.00,,,0.00,689,WeatherCatV1.10B1570,2013-05-04 21:41:00,
2013-05-04 17:46:00,58.8,49.8,30.12,NE,46,3.0,8.0,72,0.00,,,0.00,262,WeatherCatV1.10B1570,2013-05-04 21:46:00,
2013-05-04 17:51:00,58.7,49.7,30.12,ESE,108,5.0,13.0,72,0.00,,,0.00,214,WeatherCatV1.10B1570,2013-05-04 21:51:00,
2013-05-04 17:56:00,58.6,50.0,30.12,ENE,75,5.0,7.0,73,0.00,,,0.00,202,WeatherCatV1.10B1570,2013-05-04 21:56:00,
2013-05-04 18:01:00,58.6,50.0,30.12,East,101,4.0,8.0,73,0.00,,,0.00,283,WeatherCatV1.10B1570,2013-05-04 22:01:00,
2013-05-04 18:06:00,58.7,50.1,30.12,SSE,156,8.0,9.0,73,0.00,,,0.00,153,WeatherCatV1.10B1570,2013-05-04 22:06:00,
2013-05-04 18:11:00,58.5,50.2,30.12,ENE,57,5.0,8.0,74,0.00,,,0.00,139,WeatherCatV1.10B1570,2013-05-04 22:11:00,
2013-05-04 18:16:00,58.2,50.3,30.12,ENE,68,5.0,8.0,75,0.00,,,0.00,90,WeatherCatV1.10B1570,2013-05-04 22:16:00,
2013-05-04 18:21:00,57.7,49.8,30.12,ESE,114,6.0,9.0,75,0.00,,,0.00,132,WeatherCatV1.10B1570,2013-05-04 22:21:00,
2013-05-04 18:26:00,57.3,49.8,30.12,ENE,67,5.0,11.0,76,0.00,,,0.00,199,WeatherCatV1.10B1570,2013-05-04 22:26:00,
2013-05-04 18:31:00,57.4,50.2,30.12,East,95,6.0,7.0,77,0.00,,,0.00,176,WeatherCatV1.10B1570,2013-05-04 22:31:00,
2013-05-04 18:36:00,57.4,50.2,30.12,East,81,5.0,10.0,77,0.00,,,0.00,162,WeatherCatV1.10B1570,2013-05-04 22:36:00,
2013-05-04 18:41:00,57.2,50.1,30.13,ENE,59,2.0,10.0,77,0.00,,,0.00,120,WeatherCatV1.10B1570,2013-05-04 22:41:00,
2013-05-04 18:46:00,57.1,50.0,30.13,ESE,112,3.0,8.0,77,0.00,,,0.00,97,WeatherCatV1.10B1570,2013-05-04 22:46:00,
2013-05-04 18:51:00,57.0,49.9,30.13,East,90,7.0,10.0,77,0.00,,,0.00,72,WeatherCatV1.10B1570,2013-05-04 22:51:00,
2013-05-04 18:56:00,56.8,50.0,30.13,ESE,114,5.0,5.0,78,0.00,,,0.00,65,WeatherCatV1.10B1570,2013-05-04 22:56:00,
2013-05-04 19:01:00,56.6,49.8,30.13,East,95,4.0,11.0,78,0.00,,,0.00,37,WeatherCatV1.10B1570,2013-05-04 23:01:00,
2013-05-04 19:06:00,56.5,50.1,30.13,East,85,7.0,13.0,79,0.00,,,0.00,44,WeatherCatV1.10B1570,2013-05-04 23:06:00,
2013-05-04 19:11:00,56.4,50.0,30.13,ENE,76,7.0,8.0,79,0.00,,,0.00,54,WeatherCatV1.10B1570,2013-05-04 23:11:00,
2013-05-04 19:16:00,56.3,50.2,30.12,NE,55,7.0,10.0,80,0.00,,,0.00,51,WeatherCatV1.10B1570,2013-05-04 23:16:00,
2013-05-04 19:21:00,56.2,50.1,30.13,East,85,3.0,6.0,80,0.00,,,0.00,40,WeatherCatV1.10B1570,2013-05-04 23:21:00,
2013-05-04 19:26:00,56.2,50.1,30.13,North,5,3.0,14.0,80,0.00,,,0.00,30,WeatherCatV1.10B1570,2013-05-04 23:26:00,
2013-05-04 19:31:00,56.1,50.0,30.13,ENE,71,2.0,10.0,80,0.00,,,0.00,16,WeatherCatV1.10B1570,2013-05-04 23:31:00,
2013-05-04 19:36:00,56.0,50.2,30.13,ENE,76,6.0,9.0,81,0.00,,,0.00,16,WeatherCatV1.10B1570,2013-05-04 23:36:00,
2013-05-04 19:41:00,56.0,50.2,30.14,ENE,78,6.0,11.0,81,0.00,,,0.00,5,WeatherCatV1.10B1570,2013-05-04 23:41:00,
2013-05-04 19:46:00,55.9,50.2,30.14,WNW,299,2.0,7.0,81,0.00,,,0.00,0,WeatherCatV1.10B1570,2013-05-04 23:46:00,
2013-05-04 19:51:00,55.9,50.2,30.14,ESE,110,2.0,5.0,81,0.00,,,0.00,0,WeatherCatV1.10B1570,2013-05-04 23:51:00,
2013-05-04 19:56:00,55.9,50.2,30.14,ENE,75,2.0,6.0,81,0.00,,,0.00,0,WeatherCatV1.10B1570,2013-05-04 23:56:00,
2013-05-04 20:01:00,55.8,50.1,30.14,ENE,72,1.0,7.0,81,0.00,,,0.00,0,WeatherCatV1.10B1570,2013-05-05 00:01:00,
2013-05-04 20:06:00,55.8,50.4,30.14,ENE,72,2.0,6.0,82,0.00,,,0.00,0,WeatherCatV1.10B1570,2013-05-05 00:06:00,
2013-05-04 20:11:00,55.7,50.3,30.14,East,85,5.0,5.0,82,0.00,,,0.00,0,WeatherCatV1.10B1570,2013-05-05 00:11:00,
2013-05-04 20:16:00,55.6,50.2,30.14,ENE,71,3.0,4.0,82,0.00,,,0.00,0,WeatherCatV1.10B1570,2013-05-05 00:16:00,
2013-05-04 20:21:00,55.6,50.5,30.14,ESE,105,2.0,7.0,83,0.00,,,0.00,0,WeatherCatV1.10B1570,2013-05-05 00:21:00,
2013-05-04 20:26:00,55.5,50.4,30.14,NE,43,2.0,5.0,83,0.00,,,0.00,0,WeatherCatV1.10B1570,2013-05-05 00:26:00,
2013-05-04 20:31:00,55.5,50.4,30.14,ENE,64,4.0,4.0,83,0.00,,,0.00,0,WeatherCatV1.10B1570,2013-05-05 00:31:00,
2013-05-04 20:36:00,55.5,50.7,30.14,ESE,105,4.0,6.0,84,0.00,,,0.00,0,WeatherCatV1.10B1570,2013-05-05 00:36:00,
2013-05-04 20:41:00,55.4,50.6,30.15,ENE,63,4.0,8.0,84,0.00,,,0.00,0,WeatherCatV1.10B1570,2013-05-05 00:41:00,
2013-05-04 20:46:00,55.1,51.0,30.15,ENE,72,3.0,9.0,86,0.00,,,0.00,0,WeatherCatV1.10B1570,2013-05-05 00:46:00,
2013-05-04 20:51:00,54.8,51.0,30.15,ENE,75,2.0,4.0,87,0.00,,,0.00,0,WeatherCatV1.10B1570,2013-05-05 00:51:00,
2013-05-04 20:56:00,54.5,51.3,30.15,ESE,103,3.0,6.0,89,0.00,,,0.00,0,WeatherCatV1.10B1570,2013-05-05 00:56:00,
2013-05-04 21:01:00,54.3,51.4,30.14,ENE,76,2.0,5.0,90,0.00,,,0.00,0,WeatherCatV1.10B1570,2013-05-05 01:01:00,
2013-05-04 21:06:00,54.1,51.2,30.14,ENE,73,4.0,4.0,90,0.00,,,0.00,0,WeatherCatV1.10B1570,2013-05-05 01:06:00,
2013-05-04 21:11:00,54.0,51.4,30.14,East,95,3.0,6.0,91,0.00,,,0.00,0,WeatherCatV1.10B1570,2013-05-05 01:11:00,
2013-05-04 21:16:00,53.8,51.2,30.14,ENE,78,6.0,7.0,91,0.00,,,0.00,0,WeatherCatV1.10B1570,2013-05-05 01:16:00,
2013-05-04 21:21:00,53.7,51.4,30.14,ESE,116,3.0,7.0,92,0.00,,,0.00,0,WeatherCatV1.10B1570,2013-05-05 01:21:00,
2013-05-04 21:26:00,53.6,51.3,30.14,ENE,74,5.0,6.0,92,0.00,,,0.00,0,WeatherCatV1.10B1570,2013-05-05 01:26:00,
2013-05-04 21:31:00,53.5,51.5,30.15,NE,40,1.0,3.0,93,0.00,,,0.00,0,WeatherCatV1.10B1570,2013-05-05 01:31:00,
2013-05-04 21:36:00,53.5,51.5,30.15,NNE,32,2.0,3.0,93,0.00,,,0.00,0,WeatherCatV1.10B1570,2013-05-05 01:36:00,
2013-05-04 21:41:00,53.5,51.5,30.15,ENE,69,3.0,4.0,93,0.00,,,0.00,0,WeatherCatV1.10B1570,2013-05-05 01:41:00,
2013-05-04 21:46:00,53.5,51.5,30.15,ENE,68,3.0,6.0,93,0.00,,,0.00,0,WeatherCatV1.10B1570,2013-05-05 01:46:00,
2013-05-04 21:51:00,53.5,51.5,30.15,NNE,32,8.0,10.0,93,0.00,,,0.00,0,WeatherCatV1.10B1570,2013-05-05 01:51:00,
2013-05-04 21:56:00,53.6,51.3,30.15,ESE,108,2.0,8.0,92,0.00,,,0.00,0,WeatherCatV1.10B1570,2013-05-05 01:56:00,
2013-05-04 22:01:00,53.6,51.3,30.15,ESE,123,2.0,6.0,92,0.00,,,0.00,0,WeatherCatV1.10B1570,2013-05-05 02:01:00,
2013-05-04 22:06:00,53.6,51.3,30.15,East,90,6.0,10.0,92,0.00,,,0.00,0,WeatherCatV1.10B1570,2013-05-05 02:06:00,
2013-05-04 22:11:00,53.7,51.1,30.15,ENE,77,4.0,5.0,91,0.00,,,0.00,0,WeatherCatV1.10B1570,2013-05-05 02:11:00,
2013-05-04 22:16:00,53.7,50.8,30.15,East,80,7.0,8.0,90,0.00,,,0.00,0,WeatherCatV1.10B1570,2013-05-05 02:16:00,
2013-05-04 22:21:00,53.7,50.8,30.14,East,95,4.0,4.0,90,0.00,,,0.00,0,WeatherCatV1.10B1570,2013-05-05 02:21:00,
2013-05-04 22:26:00,53.7,50.8,30.14,East,85,4.0,5.0,90,0.00,,,0.00,0,WeatherCatV1.10B1570,2013-05-05 02:26:00,
2013-05-04 22:31:00,53.6,50.7,30.14,East,95,2.0,7.0,90,0.00,,,0.00,0,WeatherCatV1.10B1570,2013-05-05 02:31:00,
2013-05-04 22:36:00,53.6,50.7,30.14,East,79,5.0,11.0,90,0.00,,,0.00,0,WeatherCatV1.10B1570,2013-05-05 02:36:00,
2013-05-04 22:41:00,53.5,50.3,30.14,East,95,3.0,11.0,89,0.00,,,0.00,0,WeatherCatV1.10B1570,2013-05-05 02:41:00,
2013-05-04 22:46:00,53.6,50.4,30.14,North,359,6.0,7.0,89,0.00,,,0.00,0,WeatherCatV1.10B1570,2013-05-05 02:46:00,
2013-05-04 22:51:00,53.6,50.1,30.14,ENE,68,3.0,9.0,88,0.00,,,0.00,0,WeatherCatV1.10B1570,2013-05-05 02:51:00,
2013-05-04 22:56:00,53.7,50.2,30.14,ESE,113,3.0,12.0,88,0.00,,,0.00,0,WeatherCatV1.10B1570,2013-05-05 02:56:00,
2013-05-04 23:01:00,53.8,50.0,30.14,NNW,334,4.0,8.0,87,0.00,,,0.00,0,WeatherCatV1.10B1570,2013-05-05 03:01:00,
2013-05-04 23:06:00,53.8,50.0,30.13,ENE,72,6.0,9.0,87,0.00,,,0.00,0,WeatherCatV1.10B1570,2013-05-05 03:06:00,
2013-05-04 23:11:00,53.8,50.0,30.13,ESE,111,7.0,9.0,87,0.00,,,0.00,0,WeatherCatV1.10B1570,2013-05-05 03:11:00,
2013-05-04 23:16:00,53.9,49.8,30.13,East,101,5.0,9.0,86,0.00,,,0.00,0,WeatherCatV1.10B1570,2013-05-05 03:16:00,
2013-05-04 23:21:00,53.9,49.8,30.13,ENE,71,9.0,17.0,86,0.00,,,0.00,0,WeatherCatV1.10B1570,2013-05-05 03:21:00,
2013-05-04 23:26:00,54.0,49.6,30.13,NE,49,3.0,8.0,85,0.00,,,0.00,0,WeatherCatV1.10B1570,2013-05-05 03:26:00,
2013-05-04 23:31:00,54.0,49.6,30.13,East,85,5.0,5.0,85,0.00,,,0.00,0,WeatherCatV1.10B1570,2013-05-05 03:31:00,
2013-05-04 23:36:00,54.1,49.7,30.13,ESE,111,4.0,9.0,85,0.00,,,0.00,0,WeatherCatV1.10B1570,2013-05-05 03:36:00,
2013-05-04 23:41:00,54.1,49.7,30.13,East,100,8.0,14.0,85,0.00,,,0.00,0,WeatherCatV1.10B1570,2013-05-05 03:41:00,
2013-05-04 23:46:00,54.1,49.4,30.13,East,85,2.0,5.0,84,0.00,,,0.00,0,WeatherCatV1.10B1570,2013-05-05 03:46:00,
2013-05-04 23:51:00,54.1,49.4,30.13,SE,135,3.0,8.0,84,0.00,,,0.00,0,WeatherCatV1.10B1570,2013-05-05 03:51:00,
2013-05-04 23:56:00,54.1,49.1,30.14,NNE,15,6.0,8.0,83,0.00,,,0.00,0,WeatherCatV1.10B1570,2013-05-05 03:56:00,